Location: Unspecified
(34.4950°S, 58.5160°W)
Time: 23:16:06
(UTC+00:00)

Cosmos 2360 Rocket - Pass Details

Date: 19 April 2026
Orbit: 831 x 845 km, 71.0° (Epoch: 16 May)

Event Time Altitude Azimuth Distance (km) Brightness Sun altitude
Rises 08:45:42 0° 355° (N) 3,386 5.3 -20.2°
Reaches altitude 10° 08:48:11 10° 1° (N) 2,457 4.6 -19.7°
Maximum altitude 08:53:37 49° 74° (ENE) 1,078 3.1 -18.6°
Drops below altitude 10° 08:59:04 10° 147° (SSE) 2,478 5.0 -17.4°
Sets 09:01:35 0° 152° (SSE) 3,417 5.7 -16.9°
